Location: Huberhof
(49.2050°N, 7.4980°E)
Time: 05:24:57
(UTC+00:00)

Cosmos 2263 Rocket - Pass Details

Date: 29 October 2020
Orbit: 822 x 850 km, 71.0° (Epoch: 25 November)

Event Time Altitude Azimuth Distance (km) Brightness Sun altitude
Rises 16:52:46 0° 334° (NNW) 3,419 5.5 -7.0°
Reaches altitude 10° 16:56:07 10° 354° (N) 2,484 4.6 -7.6°
Maximum altitude 16:59:52 18° 35° (NE) 2,000 3.7 -8.2°
Enters shadow 17:03:24 11° 75° (ENE) 2,436 3.9 -8.7°
